Satellite: MET-2/21 Catalog number: 22782 Epoch time: 10244.36537479 Element set: 0874 Inclination: 082.5492 deg RA of node: 192.0037 deg Eccentricity: 0.0022089 Arg of perigee: 184.8114 deg Mean anomaly: 175.2830 deg Mean motion: 13.83647313 rev/day Decay rate: 5.9e-07 rev/day^2 Epoch rev: 85861 Checksum: 318
Satellite: OKEAN-4 Catalog number: 23317 Epoch time: 10245.72102413 Element set: 328 Inclination: 082.5393 deg RA of node: 281.4933 deg Eccentricity: 0.0021915 Arg of perigee: 351.4289 deg Mean anomaly: 008.6548 deg Mean motion: 14.82852783 rev/day Decay rate: -1.1e-07 rev/day^2 Epoch rev: 85794 Checksum: 301
Satellite: NOAA-14 Catalog number: 23455 Epoch time: 10244.85812241 Element set: 0181 Inclination: 098.8750 deg RA of node: 325.0537 deg Eccentricity: 0.0009854 Arg of perigee: 023.1921 deg Mean anomaly: 336.9687 deg Mean motion: 14.13792610 rev/day Decay rate: -2.1e-07 rev/day^2 Epoch rev: 80833 Checksum: 295
Satellite: NOAA-15 Catalog number: 25338 Epoch time: 10244.76722536 Element set: 0505 Inclination: 098.6263 deg RA of node: 230.3451 deg Eccentricity: 0.0010121 Arg of perigee: 207.4051 deg Mean anomaly: 152.6579 deg Mean motion: 14.24852511 rev/day Decay rate: 1.64e-06 rev/day^2 Epoch rev: 63965 Checksum: 280
Satellite: RESURS Catalog number: 25394 Epoch time: 10244.78502660 Element set: 0595 Inclination: 098.3047 deg RA of node: 258.6945 deg Eccentricity: 0.0002072 Arg of perigee: 029.6230 deg Mean anomaly: 330.5063 deg Mean motion: 14.24208236 rev/day Decay rate: -3.7e-07 rev/day^2 Epoch rev: 63125 Checksum: 280
Satellite: FENGYUN1 Catalog number: 25730 Epoch time: 10245.39602625 Element set: 126 Inclination: 098.7897 deg RA of node: 208.3520 deg Eccentricity: 0.0023353 Arg of perigee: 047.5005 deg Mean anomaly: 312.8136 deg Mean motion: 14.08264660 rev/day Decay rate: 3.40e-06 rev/day^2 Epoch rev: 58255 Checksum: 279
Satellite: OKEAN-0 Catalog number: 25860 Epoch time: 10245.41457374 Element set: 88 Inclination: 097.8413 deg RA of node: 215.5237 deg Eccentricity: 0.0001149 Arg of perigee: 107.8110 deg Mean anomaly: 252.3224 deg Mean motion: 14.73658668 rev/day Decay rate: 4.0e-07 rev/day^2 Epoch rev: 59827 Checksum: 294
Satellite: NOAA-16 Catalog number: 26536 Epoch time: 10244.79584017 Element set: 0983 Inclination: 099.1697 deg RA of node: 264.0666 deg Eccentricity: 0.0011291 Arg of perigee: 120.1586 deg Mean anomaly: 240.0680 deg Mean motion: 14.12573838 rev/day Decay rate: -1.64e-06 rev/day^2 Epoch rev: 51264 Checksum: 311
Satellite: NOAA-17 Catalog number: 27453 Epoch time: 10244.71580496 Element set: 0976 Inclination: 098.4232 deg RA of node: 292.0515 deg Eccentricity: 0.0010752 Arg of perigee: 274.3776 deg Mean anomaly: 085.6164 deg Mean motion: 14.24186167 rev/day Decay rate: 7.4e-07 rev/day^2 Epoch rev: 42559 Checksum: 322
Satellite: NOAA-18 Catalog number: 28654 Epoch time: 10244.72213423 Element set: 0464 Inclination: 098.9548 deg RA of node: 190.7840 deg Eccentricity: 0.0013887 Arg of perigee: 194.1071 deg Mean anomaly: 165.9715 deg Mean motion: 14.11382793 rev/day Decay rate: -1.54e-06 rev/day^2 Epoch rev: 27223 Checksum: 315
Satellite: NOAA-19 Catalog number: 33591 Epoch time: 10244.72689061 Element set: 0660 Inclination: 098.7916 deg RA of node: 185.2339 deg Eccentricity: 0.0015126 Arg of perigee: 073.2412 deg Mean anomaly: 287.0420 deg Mean motion: 14.11080342 rev/day Decay rate: 5.1e-07 rev/day^2 Epoch rev: 08070 Checksum: 277
/EX SB KEPS @ AMSAT $ORB10245.M Orbital Elements 10245.MISC
HR AMSAT ORBITAL ELEMENTS FOR MANNED AND MISCELLANEOUS SATELLITES FROM WA5QGD FORT WORTH,TX September 2, 2010 Send Subscribe/unsubscribe to KEPS at http://www.amsat.org/mailman/listinfo/keps BID: ORB10245.M TO ALL RADIO AMATEURS BT
Satellite: HUBBLE Catalog number: 20580 Epoch time: 10245.04443848 Element set: 638 Inclination: 028.4723 deg RA of node: 098.0892 deg Eccentricity: 0.0003379 Arg of perigee: 294.3708 deg Mean anomaly: 065.6530 deg Mean motion: 15.01026337 rev/day Decay rate: 4.31e-06 rev/day^2 Epoch rev: 91631 Checksum: 286
Satellite: ISS Catalog number: 25544 Epoch time: 10246.02087851 Element set: 821 Inclination: 051.6457 deg RA of node: 192.3593 deg Eccentricity: 0.0008009 Arg of perigee: 327.7100 deg Mean anomaly: 125.2858 deg Mean motion: 15.71426498 rev/day Decay rate: 8.494e-05 rev/day^2 Epoch rev: 67571 Checksum: 309
Satellite: CO-58 Catalog number: 28895 Epoch time: 10244.67561886 Element set: 0671 Inclination: 098.0024 deg RA of node: 126.5741 deg Eccentricity: 0.0018842 Arg of perigee: 048.3198 deg Mean anomaly: 311.9613 deg Mean motion: 14.59926648 rev/day Decay rate: 9.1e-07 rev/day^2 Epoch rev: 25814 Checksum: 341
Satellite: FALCON Catalog number: 30776 Epoch time: 10244.56926002 Element set: 0918 Inclination: 035.4348 deg RA of node: 300.5227 deg Eccentricity: 0.0000319 Arg of perigee: 053.3965 deg Mean anomaly: 306.6781 deg Mean motion: 15.03789867 rev/day Decay rate: 5.97e-06 rev/day^2 Epoch rev: 19156 Checksum: 309
Satellite: MAST Catalog number: 31126 Epoch time: 10245.59288253 Element set: 953 Inclination: 097.9302 deg RA of node: 283.5771 deg Eccentricity: 0.0094689 Arg of perigee: 346.2653 deg Mean anomaly: 013.5974 deg Mean motion: 14.53614353 rev/day Decay rate: -1.28e-06 rev/day^2 Epoch rev: 17930 Checksum: 317
Satellite: CAPE1 Catalog number: 31130 Epoch time: 10244.54797620 Element set: 0974 Inclination: 097.9347 deg RA of node: 279.8472 deg Eccentricity: 0.0102995 Arg of perigee: 358.1766 deg Mean anomaly: 001.9029 deg Mean motion: 14.52217242 rev/day Decay rate: 4.57e-06 rev/day^2 Epoch rev: 17874 Checksum: 323
Satellite: COMPASS Catalog number: 32787 Epoch time: 10245.68314439 Element set: 765 Inclination: 097.8872 deg RA of node: 309.3504 deg Eccentricity: 0.0016561 Arg of perigee: 036.1623 deg Mean anomaly: 324.0725 deg Mean motion: 14.81953732 rev/day Decay rate: 5.70e-06 rev/day^2 Epoch rev: 12697 Checksum: 312
Satellite: AAUSAT2 Catalog number: 32788 Epoch time: 10245.67862129 Element set: 757 Inclination: 097.8875 deg RA of node: 309.4901 deg Eccentricity: 0.0016313 Arg of perigee: 038.1451 deg Mean anomaly: 322.0949 deg Mean motion: 14.82100559 rev/day Decay rate: 5.96e-06 rev/day^2 Epoch rev: 12698 Checksum: 327
Satellite: DO-64 Catalog number: 32789 Epoch time: 10244.80148031 Element set: 0777 Inclination: 097.8944 deg RA of node: 309.1883 deg Eccentricity: 0.0016332 Arg of perigee: 038.8418 deg Mean anomaly: 321.3976 deg Mean motion: 14.82279558 rev/day Decay rate: 1.96e-06 rev/day^2 Epoch rev: 12685 Checksum: 346
Satellite: CO-66 Catalog number: 32791 Epoch time: 10244.23098813 Element set: 0759 Inclination: 097.8901 deg RA of node: 307.9251 deg Eccentricity: 0.0016863 Arg of perigee: 039.6541 deg Mean anomaly: 320.5893 deg Mean motion: 14.81726772 rev/day Decay rate: 6.83e-06 rev/day^2 Epoch rev: 12671 Checksum: 332
Satellite: RS-30 Catalog number: 32953 Epoch time: 10245.64046482 Element set: 8 Inclination: 082.5072 deg RA of node: 341.5171 deg Eccentricity: 0.0017673 Arg of perigee: 295.1851 deg Mean anomaly: 064.7396 deg Mean motion: 12.43007528 rev/day Decay rate: 1.0e-07 rev/day^2 Epoch rev: 10336 Checksum: 272
Satellite: TACSAT-3 Catalog number: 35001 Epoch time: 10244.91436133 Element set: 0388 Inclination: 040.4569 deg RA of node: 112.9831 deg Eccentricity: 0.0021747 Arg of perigee: 223.4306 deg Mean anomaly: 136.4782 deg Mean motion: 15.42500299 rev/day Decay rate: 3.467e-05 rev/day^2 Epoch rev: 07248 Checksum: 284
Satellite: PHARMSAT Catalog number: 35002 Epoch time: 10244.90842306 Element set: 0358 Inclination: 040.4693 deg RA of node: 110.7722 deg Eccentricity: 0.0024551 Arg of perigee: 226.1949 deg Mean anomaly: 133.6816 deg Mean motion: 15.42952956 rev/day Decay rate: 3.351e-05 rev/day^2 Epoch rev: 07250 Checksum: 275
Satellite: HAWKSAT1 Catalog number: 35003 Epoch time: 10245.87386776 Element set: 379 Inclination: 040.4634 deg RA of node: 097.2710 deg Eccentricity: 0.0023729 Arg of perigee: 251.7201 deg Mean anomaly: 108.1032 deg Mean motion: 15.46792395 rev/day Decay rate: 6.889e-05 rev/day^2 Epoch rev: 7274 Checksum: 308
Satellite: CP6 Catalog number: 35004 Epoch time: 10244.91948864 Element set: 0376 Inclination: 040.4644 deg RA of node: 101.4552 deg Eccentricity: 0.0022938 Arg of perigee: 248.8287 deg Mean anomaly: 111.0076 deg Mean motion: 15.47887536 rev/day Decay rate: 8.523e-05 rev/day^2 Epoch rev: 07260 Checksum: 308
Satellite: AEROCUB3 Catalog number: 35005 Epoch time: 10244.96043757 Element set: 0433 Inclination: 040.4684 deg RA of node: 094.0503 deg Eccentricity: 0.0021923 Arg of perigee: 275.6962 deg Mean anomaly: 084.1359 deg Mean motion: 15.56716967 rev/day Decay rate: 3.3092e-04 rev/day^2 Epoch rev: 07269 Checksum: 310
Satellite: CASTOR Catalog number: 35694 Epoch time: 10230.44082147 Element set: 655 Inclination: 051.5930 deg RA of node: 222.0149 deg Eccentricity: 0.0004218 Arg of perigee: 308.0851 deg Mean anomaly: 053.0105 deg Mean motion: 16.48877011 rev/day Decay rate: 7.179566e-02 rev/day^2 Epoch rev: 6110 Checksum: 273
Satellite: METEOR-M Catalog number: 35865 Epoch time: 10245.75419222 Element set: 618 Inclination: 098.7506 deg RA of node: 298.9700 deg Eccentricity: 0.0002772 Arg of perigee: 124.4149 deg Mean anomaly: 235.7291 deg Mean motion: 14.21831406 rev/day Decay rate: 1.76e-06 rev/day^2 Epoch rev: 4974 Checksum: 306
Satellite: RS-38 Catalog number: 35869 Epoch time: 10245.78761686 Element set: 630 Inclination: 098.7498 deg RA of node: 299.0409 deg Eccentricity: 0.0005175 Arg of perigee: 133.5650 deg Mean anomaly: 226.5927 deg Mean motion: 14.21987762 rev/day Decay rate: 1.77e-06 rev/day^2 Epoch rev: 4975 Checksum: 361
/EX
participants (1)
-
Ray Hoad